02-05-2023, 00:00:00,    300,    0.0,    8.1,   0.00,   0.00, 1019.2,   89.6, -999.0
02-05-2023, 00:00:10,    300,    0.0,    8.1,   0.00,   0.00, 1019.2,   89.7, -999.0
02-05-2023, 00:00:20,    300,    0.0,    8.1,   0.00,   0.00, 1019.2,   89.6, -999.0
02-05-2023, 00:00:29,    301,    0.0,    8.1,   0.00,   0.00, 1019.3,   89.4, -999.0
02-05-2023, 00:00:40,    301,    0.0,    8.1,   0.00,   0.00, 1019.2,   89.3, -999.0
02-05-2023, 00:00:50,    300,    0.0,    8.0,   0.00,   0.00, 1019.2,   89.2, -999.0
02-05-2023, 00:00:59,    300,    0.0,    8.1,   0.00,   0.00, 1019.2,   89.2, -999.0
02-05-2023, 00:01:09,    300,    0.0,    8.1,   0.00,   0.00, 1019.2,   89.3, -999.0
02-05-2023, 00:01:20,    300,    0.0,    8.0,   0.00,   0.00, 1019.2,   89.2, -999.0
02-05-2023, 00:01:29,    300,    0.0,    8.1,   0.00,   0.00, 1019.3,   89.1, -999.0
02-05-2023, 00:01:39,    300,    0.0,    8.0,   0.00,   0.00, 1019.2,   89.2, -999.0
02-05-2023, 00:01:50,    300,    0.0,    8.0,   0.00,   0.00, 1019.2,   89.1, -999.0
02-05-2023, 00:01:59,    300,    0.0,    7.9,   0.00,   0.00, 1019.2,   89.1, -999.0
02-05-2023, 00:02:09,    301,    0.0,    8.0,   0.00,   0.00, 1019.2,   89.1, -999.0
02-05-2023, 00:02:19,    300,    0.0,    8.0,   0.00,   0.00, 1019.2,   89.1, -999.0
02-05-2023, 00:02:30,    300,    0.0,    7.9,   0.00,   0.00, 1019.2,   89.2, -999.0
02-05-2023, 00:02:39,    301,    0.0,    8.0,   0.00,   0.00, 1019.3,   89.1, -999.0
02-05-2023, 00:02:49,    300,    0.0,    8.0,   0.00,   0.00, 1019.2,   89.1, -999.0
02-05-2023, 00:03:00,    300,    0.0,    8.2,   0.00,   0.00, 1019.2,   89.0, -999.0
02-05-2023, 00:03:09,    300,    0.0,    8.0,   0.00,   0.00, 1019.3,   89.0, -999.0
02-05-2023, 00:03:19,    300,    0.0,    8.0,   0.00,   0.00, 1019.2,   88.9, -999.0
02-05-2023, 00:03:29,    300,    0.0,    8.0,   0.00,   0.00, 1019.2,   88.9, -999.0
02-05-2023, 00:03:39,    300,    0.0,    8.0,   0.00,   0.00, 1019.2,   89.0, -999.0
02-05-2023, 00:03:49,    300,    0.0,    7.9,   0.00,   0.00, 1019.2,   89.1, -999.0
02-05-2023, 00:03:59,    300,    0.0,    8.1,   0.00,   0.00, 1019.2,   89.2, -999.0
02-05-2023, 00:04:09,    300,    0.0,    8.1,   0.00,   0.00, 1019.2,   89.0, -999.0
02-05-2023, 00:04:19,    301,    0.0,    8.0,   0.00,   0.00, 1019.2,   89.1, -999.0
02-05-2023, 00:04:29,    300,    0.0,    7.9,   0.00,   0.00, 1019.2,   89.0, -999.0
02-05-2023, 00:04:39,    300,    0.0,    8.0,   0.00,   0.00, 1019.2,   89.1, -999.0
02-05-2023, 00:04:49,    300,    0.0,    8.0,   0.00,   0.00, 1019.2,   89.0, -999.0
02-05-2023, 00:04:59,    300,    0.0,    7.8,   0.00,   0.00, 1019.2,   88.8, -999.0
02-05-2023, 00:05:09,    300,    0.0,    8.1,   0.00,   0.00, 1019.2,   88.8, -999.0
02-05-2023, 00:05:19,    300,    0.0,    8.1,   0.00,   0.00, 1019.2,   88.8, -999.0
02-05-2023, 00:05:29,    300,    0.0,    8.0,   0.00,   0.00, 1019.2,   89.1, -999.0
02-05-2023, 00:05:39,    300,    0.0,    8.0,   0.00,   0.00, 1019.2,   88.9, -999.0
02-05-2023, 00:05:49,    301,    0.0,    8.0,   0.00,   0.00, 1019.2,   88.9, -999.0
02-05-2023, 00:05:59,    300,    0.0,    8.0,   0.00,   0.00, 1019.2,   88.8, -999.0
02-05-2023, 00:06:09,    300,    0.0,    8.0,   0.00,   0.00, 1019.2,   88.8, -999.0
02-05-2023, 00:06:19,    300,    0.0,    8.1,   0.00,   0.00, 1019.2,   88.7, -999.0
02-05-2023, 00:06:29,    301,    0.0,    7.9,   0.00,   0.00, 1019.2,   88.7, -999.0
02-05-2023, 00:06:39,    300,    0.0,    8.0,   0.00,   0.00, 1019.2,   88.5, -999.0
02-05-2023, 00:06:49,    301,    0.0,    7.9,   0.00,   0.00, 1019.2,   88.5, -999.0
02-05-2023, 00:06:59,    301,    0.0,    8.0,   0.00,   0.00, 1019.2,   88.6, -999.0
02-05-2023, 00:07:09,    300,    0.0,    7.9,   0.00,   0.00, 1019.2,   88.6, -999.0
02-05-2023, 00:07:20,    300,    0.0,    8.0,   0.00,   0.00, 1019.2,   88.7, -999.0
02-05-2023, 00:07:29,    300,    0.0,    7.9,   0.00,   0.00, 1019.2,   88.6, -999.0
02-05-2023, 00:07:39,    300,    0.0,    7.9,   0.00,   0.00, 1019.2,   88.8, -999.0
02-05-2023, 00:07:49,    301,    0.0,    7.9,   0.00,   0.00, 1019.2,   88.9, -999.0
02-05-2023, 00:07:59,    300,    0.0,    8.1,   0.00,   0.00, 1019.2,   89.0, -999.0
02-05-2023, 00:08:09,    300,    0.0,    8.0,   0.00,   0.00, 1019.2,   89.1, -999.0
02-05-2023, 00:08:19,    300,    0.0,    8.0,   0.00,   0.00, 1019.2,   89.2, -999.0
02-05-2023, 00:08:29,    300,    0.0,    8.0,   0.00,   0.00, 1019.2,   89.4, -999.0
02-05-2023, 00:08:39,    301,    0.0,    8.0,   0.00,   0.00, 1019.2,   89.3, -999.0
02-05-2023, 00:08:48,    300,    0.0,    7.9,   0.00,   0.00, 1019.2,   89.0, -999.0
02-05-2023, 00:08:59,    301,    0.0,    8.0,   0.00,   0.00, 1019.2,   88.8, -999.0
02-05-2023, 00:09:09,    300,    0.0,    8.0,   0.00,   0.00, 1019.2,   88.7, -999.0
02-05-2023, 00:09:18,    300,    0.0,    7.9,   0.00,   0.00, 1019.2,   88.8, -999.0
02-05-2023, 00:09:28,    300,    0.0,    7.9,   0.00,   0.00, 1019.2,   88.6, -999.0
02-05-2023, 00:09:39,    300,    0.0,    7.9,   0.00,   0.00, 1019.2,   88.6, -999.0
02-05-2023, 00:09:51,    300,    0.0,    8.0,   0.00,   0.00, 1019.2,   88.6, -999.0
02-05-2023, 00:09:58,    300,    0.0,    7.8,   0.00,   0.00, 1019.2,   88.7, -999.0
02-05-2023, 00:10:09,    301,    0.0,    7.9,   0.00,   0.00, 1019.2,   89.0, -999.0
02-05-2023, 00:10:19,    300,    0.0,    7.9,   0.00,   0.00, 1019.2,   89.1, -999.0
02-05-2023, 00:10:28,    301,    0.0,    7.8,   0.00,   0.00, 1019.2,   89.1, -999.0
02-05-2023, 00:10:38,    300,    0.0,    7.8,   0.00,   0.00, 1019.2,   89.3, -999.0
02-05-2023, 00:10:49,    300,    0.0,    7.8,   0.00,   0.00, 1019.2,   89.6, -999.0
02-05-2023, 00:10:58,    300,    0.0,    7.9,   0.00,   0.00, 1019.2,   89.8, -999.0
02-05-2023, 00:11:08,    300,    0.0,    7.9,   0.00,   0.00, 1019.2,   89.8, -999.0
02-05-2023, 00:11:18,    300,    0.0,    7.8,   0.00,   0.00, 1019.2,   90.1, -999.0
02-05-2023, 00:11:28,    300,    0.0,    7.7,   0.00,   0.00, 1019.2,   90.1, -999.0
02-05-2023, 00:11:38,    300,    0.0,    7.8,   0.00,   0.00, 1019.2,   90.1, -999.0
02-05-2023, 00:11:48,    300,    0.0,    7.7,   0.00,   0.00, 1019.2,   90.2, -999.0
02-05-2023, 00:11:58,    300,    0.0,    7.7,   0.00,   0.00, 1019.2,   90.3, -999.0
02-05-2023, 00:12:08,    300,    0.0,    7.8,   0.00,   0.00, 1019.2,   90.4, -999.0
02-05-2023, 00:12:18,    300,    0.0,    7.7,   0.00,   0.00, 1019.2,   90.5, -999.0
02-05-2023, 00:12:28,    300,    0.0,    7.7,   0.00,   0.00, 1019.2,   90.6, -999.0
02-05-2023, 00:12:38,    300,    0.0,    7.7,   0.00,   0.00, 1019.2,   90.8, -999.0
02-05-2023, 00:12:48,    300,    0.0,    7.8,   0.00,   0.00, 1019.2,   90.9, -999.0
02-05-2023, 00:12:58,    300,    0.0,    7.7,   0.00,   0.00, 1019.2,   91.0, -999.0
02-05-2023, 00:13:08,    300,    0.0,    7.7,   0.00,   0.00, 1019.2,   91.0, -999.0
02-05-2023, 00:13:18,    300,    0.0,    7.7,   0.00,   0.00, 1019.2,   91.1, -999.0
02-05-2023, 00:13:28,    300,    0.0,    7.7,   0.00,   0.00, 1019.2,   91.2, -999.0
02-05-2023, 00:13:38,    300,    0.0,    7.7,   0.00,   0.00, 1019.2,   91.2, -999.0
02-05-2023, 00:13:48,    300,    0.0,    7.7,   0.00,   0.00, 1019.2,   91.2, -999.0
02-05-2023, 00:13:58,    301,    0.0,    7.7,   0.00,   0.00, 1019.2,   91.3, -999.0
02-05-2023, 00:14:08,    300,    0.0,    7.7,   0.00,   0.00, 1019.2,   91.5, -999.0
02-05-2023, 00:14:18,    300,    0.0,    7.6,   0.00,   0.00, 1019.2,   91.6, -999.0
02-05-2023, 00:14:28,    300,    0.0,    7.6,   0.00,   0.00, 1019.1,   91.5, -999.0
02-05-2023, 00:14:38,    300,    0.0,    7.6,   0.00,   0.00, 1019.2,   91.5, -999.0
02-05-2023, 00:14:48,    300,    0.0,    7.6,   0.00,   0.00, 1019.2,   91.6, -999.0
02-05-2023, 00:14:58,    300,    0.0,    7.7,   0.00,   0.00, 1019.1,   91.8, -999.0
02-05-2023, 00:15:08,    300,    0.0,    7.6,   0.00,   0.00, 1019.2,   92.0, -999.0
02-05-2023, 00:15:18,    300,    0.0,    7.7,   0.00,   0.00, 1019.2,   92.0, -999.0
02-05-2023, 00:15:28,    300,    0.0,    7.6,   0.00,   0.00, 1019.2,   91.9, -999.0
02-05-2023, 00:15:38,    300,    0.0,    7.6,   0.00,   0.00, 1019.1,   91.9, -999.0
02-05-2023, 00:15:48,    301,    0.0,    7.6,   0.00,   0.00, 1019.2,   91.8, -999.0
02-05-2023, 00:15:58,    300,    0.0,    7.6,   0.00,   0.00, 1019.1,   91.9, -999.0
02-05-2023, 00:16:08,    301,    0.0,    7.5,   0.00,   0.00, 1019.1,   92.1, -999.0
02-05-2023, 00:16:18,    301,    0.0,    7.5,   0.00,   0.00, 1019.2,   92.2, -999.0
02-05-2023, 00:16:27,    300,    0.0,    7.5,   0.00,   0.00, 1019.1,   92.2, -999.0
02-05-2023, 00:16:38,    300,    0.0,    7.5,   0.00,   0.00, 1019.2,   92.4, -999.0
02-05-2023, 00:16:48,    300,    0.0,    7.5,   0.00,   0.00, 1019.1,   92.5, -999.0
02-05-2023, 00:16:57,    301,    0.0,    7.5,   0.00,   0.00, 1019.1,   92.7, -999.0
02-05-2023, 00:17:08,    300,    0.0,    7.6,   0.00,   0.00, 1019.1,   92.8, -999.0
02-05-2023, 00:17:18,    300,    0.0,    7.5,   0.00,   0.00, 1019.1,   92.7, -999.0
02-05-2023, 00:17:28,    302,    0.0,    7.4,   0.00,   0.00, 1019.1,   92.8, -999.0
02-05-2023, 00:17:37,    300,    0.0,    7.4,   0.00,   0.00, 1019.1,   92.8, -999.0
02-05-2023, 00:17:48,    300,    0.0,    7.5,   0.00,   0.00, 1019.1,   93.0, -999.0
02-05-2023, 00:17:58,    300,    0.0,    7.5,   0.00,   0.00, 1019.1,   93.0, -999.0
02-05-2023, 00:18:07,    300,    0.0,    7.4,   0.00,   0.00, 1019.1,   93.2, -999.0
02-05-2023, 00:18:17,    300,    0.0,    7.5,   0.00,   0.00, 1019.1,   93.2, -999.0
02-05-2023, 00:18:28,    300,    0.0,    7.4,   0.00,   0.00, 1019.1,   93.3, -999.0
02-05-2023, 00:18:37,    300,    0.0,    7.5,   0.00,   0.00, 1019.1,   93.4, -999.0
02-05-2023, 00:18:47,    300,    0.0,    7.4,   0.00,   0.00, 1019.1,   93.5, -999.0
02-05-2023, 00:18:57,    300,    0.0,    7.4,   0.00,   0.00, 1019.1,   93.5, -999.0
02-05-2023, 00:19:08,    300,    0.0,    7.5,   0.00,   0.00, 1019.1,   93.8, -999.0
02-05-2023, 00:19:17,    301,    0.0,    7.5,   0.00,   0.00, 1019.1,   94.0, -999.0
02-05-2023, 00:19:27,    300,    0.0,    7.4,   0.00,   0.00, 1019.1,   94.0, -999.0
02-05-2023, 00:19:37,    300,    0.0,    7.5,   0.00,   0.00, 1019.1,   94.0, -999.0
02-05-2023, 00:19:47,    300,    0.0,    7.5,   0.00,   0.00, 1019.1,   93.9, -999.0
02-05-2023, 00:19:57,    300,    0.0,    7.5,   0.00,   0.00, 1019.1,   93.7, -999.0
02-05-2023, 00:20:07,    300,    0.0,    7.5,   0.00,   0.00, 1019.1,   93.8, -999.0
02-05-2023, 00:20:17,    300,    0.0,    7.5,   0.00,   0.00, 1019.1,   93.9, -999.0
02-05-2023, 00:20:27,    300,    0.0,    7.5,   0.00,   0.00, 1019.1,   94.0, -999.0
02-05-2023, 00:20:37,    300,    0.0,    7.5,   0.00,   0.00, 1019.1,   94.1, -999.0
02-05-2023, 00:20:47,    301,    0.0,    7.5,   0.00,   0.00, 1019.1,   94.0, -999.0
02-05-2023, 00:20:57,    301,    0.0,    7.4,   0.00,   0.00, 1019.1,   94.0, -999.0
02-05-2023, 00:21:07,    301,    0.0,    7.4,   0.00,   0.00, 1019.2,   94.0, -999.0
02-05-2023, 00:21:17,    300,    0.0,    7.6,   0.00,   0.00, 1019.1,   94.2, -999.0
02-05-2023, 00:21:27,    300,    0.0,    7.4,   0.00,   0.00, 1019.1,   94.0, -999.0
02-05-2023, 00:21:37,    300,    0.0,    7.4,   0.00,   0.00, 1019.1,   94.0, -999.0
02-05-2023, 00:21:47,    301,    0.0,    7.3,   0.00,   0.00, 1019.1,   94.0, -999.0
02-05-2023, 00:21:57,    300,    0.0,    7.3,   0.00,   0.00, 1019.1,   94.2, -999.0
02-05-2023, 00:22:07,    300,    0.0,    7.3,   0.00,   0.00, 1019.1,   94.2, -999.0
02-05-2023, 00:22:17,    300,    0.0,    7.3,   0.00,   0.00, 1019.2,   94.3, -999.0
02-05-2023, 00:22:27,    300,    0.0,    7.3,   0.00,   0.00, 1019.2,   94.4, -999.0
02-05-2023, 00:22:37,    300,    0.0,    7.2,   0.00,   0.00, 1019.2,   94.5, -999.0
02-05-2023, 00:22:47,    301,    0.0,    7.3,   0.00,   0.00, 1019.2,   94.5, -999.0
02-05-2023, 00:22:57,    300,    0.0,    7.4,   0.00,   0.00, 1019.2,   94.7, -999.0
02-05-2023, 00:23:07,    299,    0.0,    7.3,   0.00,   0.00, 1019.1,   94.9, -999.0
02-05-2023, 00:23:17,    301,    0.0,    7.3,   0.00,   0.00, 1019.1,   95.1, -999.0
02-05-2023, 00:23:27,    300,    0.0,    7.3,   0.00,   0.00, 1019.1,   95.3, -999.0
02-05-2023, 00:23:37,    300,    0.0,    7.3,   0.00,   0.00, 1019.2,   95.6, -999.0
02-05-2023, 00:23:47,    301,    0.0,    7.3,   0.00,   0.00, 1019.2,   95.7, -999.0
02-05-2023, 00:23:57,    300,    0.0,    7.3,   0.00,   0.00, 1019.2,   95.8, -999.0
02-05-2023, 00:24:07,    300,    0.0,    7.3,   0.00,   0.00, 1019.2,   96.1, -999.0
02-05-2023, 00:24:17,    300,    0.0,    7.3,   0.00,   0.00, 1019.2,   96.2, -999.0
02-05-2023, 00:24:27,    300,    0.0,    7.3,   0.00,   0.00, 1019.2,   96.3, -999.0
02-05-2023, 00:24:37,    300,    0.0,    7.3,   0.00,   0.00, 1019.1,   96.2, -999.0
02-05-2023, 00:24:46,    300,    0.0,    7.5,   0.00,   0.00, 1019.2,   96.2, -999.0
02-05-2023, 00:24:57,    300,    0.0,    7.3,   0.00,   0.00, 1019.2,   96.3, -999.0
02-05-2023, 00:25:07,    300,    0.0,    7.4,   0.00,   0.00, 1019.2,   96.5, -999.0
02-05-2023, 00:25:17,    300,    0.0,    7.4,   0.00,   0.00, 1019.2,   96.7, -999.0
02-05-2023, 00:25:26,    300,    0.0,    7.3,   0.00,   0.00, 1019.2,   96.8, -999.0
02-05-2023, 00:25:37,    300,    0.0,    7.4,   0.00,   0.00, 1019.2,   96.9, -999.0
02-05-2023, 00:25:47,    300,    0.0,    7.4,   0.00,   0.00, 1019.2,   97.1, -999.0
02-05-2023, 00:25:56,    300,    0.0,    7.4,   0.00,   0.00, 1019.2,   97.0, -999.0
02-05-2023, 00:26:07,    300,    0.0,    7.4,   0.00,   0.00, 1019.2,   97.1, -999.0
02-05-2023, 00:26:17,    300,    0.0,    7.4,   0.00,   0.00, 1019.2,   97.0, -999.0
02-05-2023, 00:26:26,    301,    0.0,    7.4,   0.00,   0.00, 1019.2,   96.9, -999.0
02-05-2023, 00:26:36,    301,    0.0,    7.3,   0.00,   0.00, 1019.2,   96.9, -999.0
02-05-2023, 00:26:47,    301,    0.0,    7.4,   0.00,   0.00, 1019.2,   97.0, -999.0
02-05-2023, 00:26:57,    301,    0.0,    7.5,   0.00,   0.00, 1019.2,   97.2, -999.0
02-05-2023, 00:27:06,    301,    0.0,    7.4,   0.00,   0.00, 1019.2,   97.1, -999.0
02-05-2023, 00:27:16,    301,    0.0,    7.5,   0.00,   0.00, 1019.2,   96.9, -999.0
02-05-2023, 00:27:27,    301,    0.0,    7.2,   0.00,   0.00, 1019.2,   96.8, -999.0
02-05-2023, 00:27:36,    301,    0.0,    7.3,   0.00,   0.00, 1019.2,   96.7, -999.0
02-05-2023, 00:27:46,    302,    0.0,    7.3,   0.00,   0.00, 1019.2,   96.7, -999.0
02-05-2023, 00:27:56,    301,    0.0,    7.3,   0.00,   0.00, 1019.2,   96.8, -999.0
02-05-2023, 00:28:06,    301,    0.0,    7.3,   0.00,   0.00, 1019.2,   96.9, -999.0
02-05-2023, 00:28:16,    301,    0.0,    7.3,   0.00,   0.00, 1019.2,   96.9, -999.0
02-05-2023, 00:28:26,    301,    0.0,    7.3,   0.00,   0.00, 1019.2,   96.9, -999.0
02-05-2023, 00:28:36,    301,    0.0,    7.3,   0.00,   0.00, 1019.2,   97.0, -999.0
02-05-2023, 00:28:46,    301,    0.0,    7.3,   0.00,   0.00, 1019.2,   97.2, -999.0
02-05-2023, 00:28:56,    301,    0.0,    7.2,   0.00,   0.00, 1019.2,   97.3, -999.0
02-05-2023, 00:29:06,    301,    0.0,    7.3,   0.00,   0.00, 1019.2,   97.4, -999.0
02-05-2023, 00:29:16,    301,    0.0,    7.3,   0.00,   0.00, 1019.2,   97.4, -999.0
02-05-2023, 00:29:26,    301,    0.0,    7.2,   0.00,   0.00, 1019.2,   97.4, -999.0
02-05-2023, 00:29:36,    301,    0.0,    7.2,   0.00,   0.00, 1019.2,   97.6, -999.0
02-05-2023, 00:29:46,    301,    0.0,    7.2,   0.00,   0.00, 1019.2,   97.5, -999.0
02-05-2023, 00:29:56,    301,    0.0,    7.2,   0.00,   0.00, 1019.2,   97.6, -999.0
02-05-2023, 00:30:06,    301,    0.0,    7.2,   0.00,   0.00, 1019.2,   97.7, -999.0
02-05-2023, 00:30:16,    301,    0.0,    7.2,   0.00,   0.00, 1019.2,   97.8, -999.0
02-05-2023, 00:30:26,    301,    0.0,    7.1,   0.00,   0.00, 1019.2,   98.1, -999.0
02-05-2023, 00:30:36,    301,    0.0,    7.2,   0.00,   0.00, 1019.2,   98.3, -999.0
02-05-2023, 00:30:46,    301,    0.0,    7.1,   0.00,   0.00, 1019.2,   98.5, -999.0
02-05-2023, 00:30:56,    301,    0.0,    7.1,   0.00,   0.00, 1019.2,   98.6, -999.0
02-05-2023, 00:31:06,    304,    0.0,    7.2,   0.00,   0.00, 1019.2,   98.6, -999.0
02-05-2023, 00:31:16,    301,    0.0,    7.2,   0.00,   0.00, 1019.2,   98.7, -999.0
02-05-2023, 00:31:26,    301,    0.0,    7.2,   0.00,   0.00, 1019.2,   98.6, -999.0
02-05-2023, 00:31:36,    301,    0.0,    7.2,   0.00,   0.00, 1019.2,   98.6, -999.0
02-05-2023, 00:31:46,    301,    0.0,    7.1,   0.00,   0.00, 1019.2,   98.6, -999.0
02-05-2023, 00:31:56,    301,    0.0,    7.1,   0.00,   0.00, 1019.2,   98.6, -999.0
02-05-2023, 00:32:06,    301,    0.0,    7.2,   0.00,   0.00, 1019.2,   98.6, -999.0
02-05-2023, 00:32:16,    301,    0.0,    7.1,   0.00,   0.00, 1019.2,   98.7, -999.0
02-05-2023, 00:32:26,    301,    0.0,    7.1,   0.00,   0.00, 1019.2,   98.7, -999.0
02-05-2023, 00:32:36,    301,    0.0,    7.1,   0.00,   0.00, 1019.2,   98.7, -999.0
02-05-2023, 00:32:46,    301,    0.0,    7.1,   0.00,   0.00, 1019.2,   98.6, -999.0
02-05-2023, 00:32:56,    301,    0.0,    7.1,   0.00,   0.00, 1019.2,   98.7, -999.0
02-05-2023, 00:33:06,    301,    0.0,    7.1,   0.00,   0.00, 1019.2,   98.7, -999.0
02-05-2023, 00:33:16,    301,    0.0,    7.1,   0.00,   0.00, 1019.2,   98.6, -999.0
02-05-2023, 00:33:26,    301,    0.0,    7.1,   0.00,   0.00, 1019.2,   98.6, -999.0
02-05-2023, 00:33:36,    301,    0.0,    7.0,   0.00,   0.00, 1019.2,   98.7, -999.0
02-05-2023, 00:33:45,    301,    0.0,    7.1,   0.00,   0.00, 1019.2,   98.7, -999.0
02-05-2023, 00:33:56,    301,    0.0,    7.1,   0.00,   0.00, 1019.2,   98.6, -999.0
02-05-2023, 00:34:06,    301,    0.0,    7.2,   0.00,   0.00, 1019.2,   98.6, -999.0
02-05-2023, 00:34:16,    301,    0.0,    7.1,   0.00,   0.00, 1019.2,   98.7, -999.0
02-05-2023, 00:34:25,    301,    0.0,    7.1,   0.00,   0.00, 1019.2,   98.6, -999.0
02-05-2023, 00:34:36,    301,    0.0,    7.1,   0.00,   0.00, 1019.2,   98.7, -999.0
02-05-2023, 00:34:46,    301,    0.0,    7.1,   0.00,   0.00, 1019.2,   98.6, -999.0
02-05-2023, 00:34:55,    301,    0.0,    7.1,   0.00,   0.00, 1019.2,   98.7, -999.0
02-05-2023, 00:35:05,    301,    0.0,    7.1,   0.00,   0.00, 1019.2,   98.7, -999.0
02-05-2023, 00:35:16,    301,    0.0,    7.1,   0.00,   0.00, 1019.2,   98.7, -999.0
02-05-2023, 00:35:25,    299,    0.0,    7.0,   0.00,   0.00, 1019.2,   98.7, -999.0
02-05-2023, 00:35:35,    301,    0.0,    7.1,   0.00,   0.00, 1019.2,   98.7, -999.0
02-05-2023, 00:35:45,    301,    0.0,    7.1,   0.00,   0.00, 1019.2,   98.6, -999.0
02-05-2023, 00:35:56,    301,    0.0,    7.1,   0.00,   0.00, 1019.2,   98.6, -999.0
02-05-2023, 00:36:05,    301,    0.0,    7.1,   0.00,   0.00, 1019.2,   98.7, -999.0
02-05-2023, 00:36:15,    301,    0.0,    7.1,   0.00,   0.00, 1019.2,   98.6, -999.0
02-05-2023, 00:36:25,    301,    0.0,    7.1,   0.00,   0.00, 1019.2,   98.7, -999.0
02-05-2023, 00:36:36,    301,    0.0,    7.0,   0.00,   0.00, 1019.2,   98.7, -999.0
02-05-2023, 00:36:45,    301,    0.0,    7.1,   0.00,   0.00, 1019.2,   98.6, -999.0
02-05-2023, 00:36:55,    301,    0.0,    7.1,   0.00,   0.00, 1019.2,   98.6, -999.0
02-05-2023, 00:37:05,    301,    0.0,    7.1,   0.00,   0.00, 1019.2,   98.7, -999.0
02-05-2023, 00:37:15,    301,    0.0,    7.1,   0.00,   0.00, 1019.2,   98.6, -999.0
02-05-2023, 00:37:25,    302,    0.0,    7.1,   0.00,   0.00, 1019.2,   98.7, -999.0
02-05-2023, 00:37:35,    301,    0.0,    7.1,   0.00,   0.00, 1019.2,   98.6, -999.0
02-05-2023, 00:37:45,    301,    0.0,    7.1,   0.00,   0.00, 1019.2,   98.7, -999.0
02-05-2023, 00:37:55,    301,    0.0,    7.1,   0.00,   0.00, 1019.2,   98.6, -999.0
02-05-2023, 00:38:05,    301,    0.0,    7.1,   0.00,   0.00, 1019.2,   98.6, -999.0
02-05-2023, 00:38:15,    301,    0.0,    7.1,   0.00,   0.00, 1019.2,   98.7, -999.0
02-05-2023, 00:38:25,    301,    0.0,    7.1,   0.00,   0.00, 1019.2,   98.7, -999.0
02-05-2023, 00:38:35,    301,    0.0,    7.0,   0.00,   0.00, 1019.2,   98.7, -999.0
02-05-2023, 00:38:45,    301,    0.0,    7.0,   0.00,   0.00, 1019.2,   98.7, -999.0
02-05-2023, 00:38:55,    302,    0.0,    7.0,   0.00,   0.00, 1019.2,   98.7, -999.0
02-05-2023, 00:39:05,    302,    0.0,    7.1,   0.00,   0.00, 1019.2,   98.7, -999.0
02-05-2023, 00:39:15,    302,    0.0,    7.1,   0.00,   0.00, 1019.2,   98.7, -999.0
02-05-2023, 00:39:25,    302,    0.0,    7.1,   0.00,   0.00, 1019.2,   98.7, -999.0
02-05-2023, 00:39:35,    302,    0.0,    7.1,   0.00,   0.00, 1019.2,   98.6, -999.0
02-05-2023, 00:39:45,    302,    0.0,    7.1,   0.00,   0.00, 1019.2,   98.6, -999.0
02-05-2023, 00:39:55,    302,    0.0,    7.1,   0.00,   0.00, 1019.2,   98.5, -999.0
02-05-2023, 00:40:05,    302,    0.0,    7.1,   0.00,   0.00, 1019.2,   98.7, -999.0
02-05-2023, 00:40:15,    302,    0.0,    7.1,   0.00,   0.00, 1019.2,   98.6, -999.0
02-05-2023, 00:40:25,    302,    0.0,    7.1,   0.00,   0.00, 1019.2,   98.7, -999.0
02-05-2023, 00:40:35,    302,    0.0,    7.2,   0.00,   0.00, 1019.2,   98.6, -999.0
02-05-2023, 00:40:45,    302,    0.0,    7.1,   0.00,   0.00, 1019.2,   98.6, -999.0
02-05-2023, 00:40:55,    302,    0.0,    7.2,   0.00,   0.00, 1019.2,   98.6, -999.0
02-05-2023, 00:41:05,    302,    0.0,    7.2,   0.00,   0.00, 1019.2,   98.6, -999.0
02-05-2023, 00:41:15,    302,    0.0,    7.2,   0.00,   0.00, 1019.2,   98.7, -999.0
02-05-2023, 00:41:25,    301,    0.0,    7.2,   0.00,   0.00, 1019.2,   98.6, -999.0
02-05-2023, 00:41:34,    302,    0.0,    7.2,   0.00,   0.00, 1019.2,   98.6, -999.0
02-05-2023, 00:41:45,    303,    0.0,    7.2,   0.00,   0.00, 1019.2,   98.7, -999.0
02-05-2023, 00:41:55,    302,    0.0,    7.2,   0.00,   0.00, 1019.2,   98.7, -999.0
02-05-2023, 00:42:05,    302,    0.0,    7.2,   0.00,   0.00, 1019.2,   98.7, -999.0
02-05-2023, 00:42:15,    302,    0.0,    7.1,   0.00,   0.00, 1019.2,   98.7, -999.0
02-05-2023, 00:42:25,    302,    0.0,    7.1,   0.00,   0.00, 1019.2,   98.6, -999.0
02-05-2023, 00:42:35,    302,    0.0,    7.1,   0.00,   0.00, 1019.2,   98.8, -999.0
02-05-2023, 00:42:44,    302,    0.0,    7.1,   0.00,   0.00, 1019.2,   98.7, -999.0
02-05-2023, 00:42:54,    302,    0.0,    7.2,   0.00,   0.00, 1019.2,   98.6, -999.0
02-05-2023, 00:43:05,    325,    0.0,    7.2,   0.00,   0.00, 1019.2,   98.6, -999.0
02-05-2023, 00:43:15,    325,    0.0,    7.1,   0.00,   0.00, 1019.2,   98.7, -999.0
02-05-2023, 00:43:24,    325,    0.0,    7.1,   0.00,   0.00, 1019.2,   98.6, -999.0
02-05-2023, 00:43:35,    325,    0.0,    7.2,   0.00,   0.00, 1019.2,   98.7, -999.0
02-05-2023, 00:43:45,    325,    0.0,    7.1,   0.00,   0.00, 1019.2,   98.7, -999.0
02-05-2023, 00:43:54,    325,    0.0,    7.1,   0.00,   0.00, 1019.2,   98.7, -999.0
02-05-2023, 00:44:04,    325,    0.0,    7.1,   0.00,   0.00, 1019.2,   98.8, -999.0
02-05-2023, 00:44:15,    325,    0.0,    7.2,   0.00,   0.00, 1019.2,   98.7, -999.0
02-05-2023, 00:44:24,    325,    0.0,    7.1,   0.00,   0.00, 1019.2,   98.6, -999.0
02-05-2023, 00:44:34,    325,    0.0,    7.1,   0.00,   0.00, 1019.2,   98.7, -999.0
02-05-2023, 00:44:44,    325,    0.0,    7.2,   0.00,   0.00, 1019.2,   98.7, -999.0
02-05-2023, 00:44:54,    325,    0.0,    7.1,   0.00,   0.00, 1019.2,   98.6, -999.0
02-05-2023, 00:45:04,    325,    0.0,    7.2,   0.00,   0.00, 1019.2,   98.6, -999.0
02-05-2023, 00:45:14,    325,    0.0,    7.1,   0.00,   0.00, 1019.2,   98.7, -999.0
02-05-2023, 00:45:24,    325,    0.0,    7.1,   0.00,   0.00, 1019.2,   98.7, -999.0
02-05-2023, 00:45:34,    325,    0.0,    7.1,   0.00,   0.00, 1019.2,   98.7, -999.0
02-05-2023, 00:45:44,    325,    0.0,    7.1,   0.00,   0.00, 1019.2,   98.6, -999.0
02-05-2023, 00:45:54,    325,    0.0,    7.1,   0.00,   0.00, 1019.2,   98.7, -999.0
02-05-2023, 00:46:04,    325,    0.0,    7.1,   0.00,   0.00, 1019.2,   98.7, -999.0
02-05-2023, 00:46:14,    325,    0.0,    7.1,   0.00,   0.00, 1019.2,   98.7, -999.0
02-05-2023, 00:46:24,    325,    0.0,    7.2,   0.00,   0.00, 1019.2,   98.7, -999.0
02-05-2023, 00:46:34,    325,    0.0,    7.1,   0.00,   0.00, 1019.2,   98.8, -999.0
02-05-2023, 00:46:44,    325,    0.0,    7.1,   0.00,   0.00, 1019.2,   98.6, -999.0